Главная страница
METAR-TAF:

METAR-TAF

Аэропорты :

Penn Valley Airport

Selinsgrove, Пенсильвания, США

широта: 40-49-09N, долгота: 076-51-58W, высота над уровнем моря: 137 м

Текущие метеонаблюдения

Эта сводка был подготовлена 48 минут назад, в 22:53 UTC
Штиль
Температура -3°C
Влажность 68%
Давление 1029 hPa
Видимость: 16.1 км
небольшая облачность на высоте 12000 фута

METAR: KSEG 132253Z AUTO 00000KT 10SM FEW120 M03/M08 A3038 RMK AO2 SLP296 T10281078

Время: 18:41 (23:41 UTC)


TAF: отсутствует

Метеонаблюдения и прогнозы для более 4000 аэропортов (сводки METAR и TAF).

Имеющиеся станции представлены на карте желтыми и красными точками.

Чтобы увидеть название станции, наведите на нее мышь.

Затем щелкните, чтобы увидеть метеонаблюдения и метеопрогнозы.

Управление картой: чтобы увеличить масштаб, щелкните зеленые кнопки с черным крестиком; чтобы уменьшить масштаб, щелкните зеленую кнопку с тире; для просмотра соседних карт щелкайте зеленые стрелки.


METAR-TAF: